Location: Gouy
(50.0008°N, 3.2556°E)
Time: 02:23:23
(UTC+00:00)

CZ-2C R/B - Pass Details

Date: 23 May 2024
Orbit: 784 x 868 km, 98.3° (Epoch: 16 June)

Event Time Altitude Azimuth Distance (km) Brightness Sun altitude
Exits shadow 00:47:46 - 133° (SE) 2,821 5.2 -17.9°
Reaches altitude 10° 00:49:04 10° 127° (SE) 2,340 4.8 -17.9°
Maximum altitude 00:53:40 34° 64° (ENE) 1,270 4.0 -17.7°
Drops below altitude 10° 00:58:20 10° 0° (N) 2,364 6.2 -17.5°
Sets 01:00:50 0° 352° (N) 3,305 6.9 -17.3°
